SCP
0 0 0 0 0 0 0 0 0 0 0 0 0 0 0 0 0 0 0 0 0 0 0 0 0 0 0 0 0 0 0 0 0 0 0 0 0 0 0 0 0 0 0
0 0 0 0 0 0 0 0 0 0 0 0 0 0 0 0 0 0 0 0 0 0 0 0 0 0 0 0 0 0 0 0 0 0 0 0 0 0 0 0 0 0 0
0 0 1 1 1 0 0 0 0 0 0 0 0 0 0 0 0 0 0 0 0 0 0 0 0 0 0 0 0 0 0 0 0 0 0 0 0 0 0 0 0 0 0
0 0 1 1 1 1 0 0 0 0 0 0 0 0 0 0 0 0 0 0 0 0 0 0 0 0 0 0 0 0 0 0 0 0 0 0 0 0 0 0 0 0 0
1 1 1 1 1 1 1 0 0 0 0 0 0 0 0 0 0 0 0 0 0 0 0 0 0 0 0 0 0 0 0 0 0 0 0 0 0 0 0 0 0 0 0
0 1 1 1 1 1 1 1 0 0 0 0 0 0 0 0 0 0 0 0 0 0 0 0 0 0 0 0 0 0 0 0 0 0 0 0 0 0 0 0 0 0 0
0 1 1 1 1 1 1 1 1 1 1 1 1 0 0 0 0 0 0 0 0 0 0 0 0 0 0 0 0 0 0 0 0 0 0 0 0 0 0 0 0 0 0
0 1 1 1 1 1 1 1 1 1 1 1 1 1 0 0 0 0 0 0 0 0 0 0 0 0 0 0 0 0 0 0 0 0 0 0 0 0 0 0 0 0 0
1 1 1 1 1 1 1 1 1 1 1 1 1 1 1 0 0 0 0 0 0 0 0 0 0 0 0 0 0 0 0 0 0 0 0 0 0 1 1 1 0 0 0
1 1 1 1 1 1 1 1 1 1 1 1 1 1 1 1 0 0 0 0 0 0 0 0 0 0 0 0 0 0 0 0 0 0 0 0 0 1 1 1 1 1 1
1 1 1 1 1 1 1 1 1 1 1 1 1 1 1 1 1 1 1 1 1 0 0 0 0 1 1 1 0 0 0 0 0 0 0 0 0 1 1 1 1 1 1
1 1 1 1 1 1 1 1 1 1 1 1 1 1 1 1 1 1 1 1 1 1 1 1 1 1 1 1 1 1 1 1 1 1 0 0 0 1 1 1 1 1 1
3 2 2 1 1 1 1 1 1 1 1 1 1 1 1 1 1 1 1 1 1 1 1 1 1 1 1 1 1 1 1 1 1 1 1 0 0 1 1 2 2 2 1
5 4 2 2 1 1 1 1 1 1 1 1 1 1 1 1 1 1 1 1 1 1 1 1 1 1 1 1 1 1 1 1 1 1 1 1 1 1 1 2 2 2 2
7 5 3 2 2 2 1 1 1 1 1 1 1 1 1 1 1 1 1 1 1 1 1 1 1 1 1 1 1 1 1 1 1 1 1 1 1 1 1 2 2 2 2
8 5 4 3 5 5 4 2 2 2 1 1 1 1 1 1 1 1 1 1 1 1 1 1 1 1 1 1 1 1 1 1 1 0 0 1 1 1 1 2 2 2 2
8 6 5 5 7 10 6 3 4 3 2 2 1 1 1 1 1 1 0 0 0 0 0 0 0 0 0 0 1 0 0 0 0 0 0 0 1 1 1 1 2 2 1
6 6 6 6 8 9 7 5 5 4 2 2 2 1 1 1 1 1 0 0 0 0 0 0 0 0 0 0 0 0 0 0 0 0 0 0 1 1 1 1 2 2 1
3 4 6 7 7 7 6 4 4 3 2 2 2 1 1 1 1 0 0 0 0 0 0 0 0 0 0 0 0 0 0 0 0 0 0 0 1 1 1 1 1 1 1
2 3 4 5 5 5 5 3 2 2 2 1 1 1 1 1 0 0 0 0 0 0 0 0 0 0 0 0 0 0 0 0 0 0 0 0 0 1 1 1 1 1 1
2 2 2 2 2 3 3 2 2 1 1 1 1 1 1 0 0 0 0 0 0 0 0 0 0 0 0 0 0 0 0 0 0 0 0 0 0 1 1 1 1 1 1
1 1 1 1 1 1 1 1 1 1 1 1 1 1 0 0 0 0 0 0 0 0 0 0 0 0 0 0 0 0 0 0 0 0 0 0 0 1 1 1 1 1 1
1 0 0 0 0 0 1 1 1 1 0 0 0 0 0 0 0 1 0 0 0 0 0 0 0 0 0 0 0 0 0 0 0 0 0 0 0 0 0 1 1 1 1
0 0 0 0 0 0 0 1 1 1 1 1 0 0 0 0 1 1 1 0 0 0 0 0 0 0 0 0 0 0 0 0 0 0 0 0 0 0 0 0 0 1 1
0 0 0 0 0 0 0 1 1 1 1 1 1 1 1 1 1 1 1 0 0 0 0 0 0 0 0 0 0 0 0 0 0 0 0 0 0 0 0 0 0 0 1
0 0 0 0 0 0 0 0 0 1 1 1 1 1 1 1 1 1 1 1 0 0 0 0 0 0 0 0 0 0 0 0 0 0 0 0 0 0 0 0 0 0 0
Wind_Speed
11 12 19 20 20 19 19 18 18 17 16 15 15 15 15 14 14 13 13 13 13 12 11 12 12 12 12 12 12 12 11 11 12 12 12 13 13 13 12 13 12 9 13
15 14 20 21 22 21 19 19 18 17 16 15 14 14 15 15 14 13 13 14 13 12 11 11 12 12 11 11 11 10 10 9 9 10 11 10 11 10 9 12 12 8 13
17 14 18 21 22 21 20 19 19 18 17 16 15 15 15 14 14 13 13 13 14 13 11 10 10 10 10 10 9 8 8 8 7 8 8 4 5 8 10 13 14 13 12
18 13 15 21 21 21 20 19 19 18 18 17 16 15 15 14 14 13 13 13 13 12 11 10 9 9 9 8 8 7 6 7 6 6 4 3 4 8 11 13 14 13 12
14 11 15 23 22 21 20 19 19 19 18 18 17 16 16 15 14 14 13 13 13 12 12 11 10 10 9 8 8 6 5 5 6 5 3 3 4 8 11 13 13 13 12
12 10 15 22 21 21 21 20 19 19 18 18 17 17 16 15 14 14 13 13 12 12 12 11 10 9 9 9 8 7 7 6 5 2 3 3 5 10 12 13 13 13 12
12 10 13 21 21 21 20 20 19 19 18 17 16 15 14 13 13 13 12 12 11 11 10 10 10 10 10 9 9 8 8 7 4 3 3 4 7 14 15 15 14 14 13
16 13 12 21 21 20 20 19 19 19 18 17 16 16 15 14 13 12 12 11 11 11 11 11 11 11 12 12 11 10 10 9 6 4 4 5 9 15 17 16 15 15 14
15 13 10 13 16 20 20 19 18 18 17 17 17 16 16 15 14 13 12 12 12 12 12 12 12 11 11 12 12 12 12 12 6 3 5 3 10 16 18 18 17 17 16
14 14 12 10 9 10 12 18 18 18 17 17 17 16 16 15 14 14 12 12 14 14 14 14 14 14 13 12 12 12 12 11 6 5 4 4 11 18 19 18 18 18 18
13 12 12 11 10 8 8 13 15 17 17 16 14 17 15 7 7 8 11 14 15 15 16 16 16 16 14 13 14 13 11 4 5 5 5 8 10 17 19 18 19 18 18
16 13 11 12 11 10 10 8 6 7 8 8 7 8 6 5 6 8 10 17 18 18 18 18 17 15 12 6 9 12 5 6 6 5 6 12 12 15 19 19 19 19 19
17 15 13 13 12 12 8 7 5 4 5 6 7 7 5 5 5 6 4 7 9 13 9 10 10 6 6 5 5 5 6 6 5 5 6 12 13 15 17 21 21 20 20
14 14 14 14 12 12 8 7 7 6 5 6 8 8 6 5 6 5 4 4 4 3 4 4 4 6 7 8 8 8 8 5 5 4 6 13 13 15 16 19 21 21 20
8 8 11 12 12 10 8 6 7 7 6 7 5 6 7 6 6 5 3 3 3 3 3 4 4 5 5 6 6 6 5 5 5 5 4 11 12 13 16 19 21 21 20
6 4 3 8 9 8 6 5 5 5 5 5 5 7 8 6 4 4 3 3 3 3 3 3 4 4 3 2 3 4 4 5 5 5 5 7 12 14 16 18 20 21 21
8 7 5 3 4 4 5 5 4 4 4 4 4 5 6 6 5 4 3 3 3 3 3 2 3 2 2 2 3 3 3 4 5 6 6 5 6 11 15 18 20 21 21
13 12 11 7 5 2 0 2 3 4 4 4 4 4 6 6 5 4 3 3 2 2 2 2 2 1 1 1 2 3 3 4 6 7 6 6 5 6 9 16 18 19 21
11 11 11 10 7 6 6 4 2 2 3 3 4 4 5 6 6 4 3 3 2 2 1 1 1 1 1 1 2 3 3 4 5 7 7 8 7 7 6 10 15 17 20
10 9 7 7 8 8 7 5 4 3 2 3 4 5 6 5 6 5 3 3 3 2 1 1 1 1 1 1 2 3 4 5 5 5 7 7 7 9 8 8 8 10 18
7 9 6 4 7 7 6 5 3 3 2 3 4 6 6 6 7 6 4 4 3 3 3 2 2 1 0 0 1 3 4 5 5 4 4 4 6 7 7 8 7 6 6
8 5 3 5 6 8 6 4 3 3 2 3 3 5 6 6 7 6 6 4 4 3 2 2 2 2 0 1 2 1 3 5 4 2 2 3 4 4 5 7 7 7 6
11 8 5 3 3 5 5 3 1 1 1 1 2 3 5 6 7 6 7 6 5 4 3 2 2 3 1 0 2 2 0 2 4 4 3 3 3 3 4 4 6 7 8
10 9 7 6 5 6 6 5 4 1 1 1 2 2 4 5 6 7 7 7 6 4 4 3 2 3 3 1 0 1 3 3 2 4 4 3 4 4 5 4 4 6 7
7 6 5 5 6 6 7 7 7 6 4 3 4 4 3 3 3 5 7 7 6 5 5 4 3 3 3 3 2 2 2 2 3 3 5 4 4 4 4 5 4 5 6
4 3 3 4 4 4 5 6 6 6 6 6 6 6 5 3 2 3 5 6 6 5 5 5 5 4 3 3 3 3 3 3 3 3 4 5 5 4 5 4 4 4 4
Wind_Direction
161 166 159 158 159 157 151 143 140 138 133 129 127 126 124 122 121 121 125 130 130 128 127 127 125 123 126 123 120 122 122 123 123 122 120 118 120 124 127 123 116 112 111
158 162 158 158 159 159 155 148 145 143 140 138 138 137 134 132 129 126 127 134 136 133 127 126 128 124 127 129 126 126 125 122 124 125 122 122 124 124 127 135 127 127 121
152 159 157 157 159 161 158 153 150 148 147 147 148 146 143 141 139 137 134 134 138 139 134 131 133 134 134 135 136 135 134 129 127 132 128 120 131 131 124 132 136 132 128
151 155 157 158 160 162 161 158 156 155 154 155 156 154 151 148 147 147 146 145 145 146 148 150 151 151 151 152 152 152 152 150 151 155 149 159 170 151 139 137 141 140 139
149 154 161 159 162 164 164 163 162 161 161 162 162 161 159 158 156 156 157 157 157 157 159 163 166 167 168 170 171 174 179 178 180 182 183 191 190 174 161 152 150 150 149
152 158 163 162 165 166 167 167 168 168 168 169 168 168 167 167 168 167 167 168 167 166 166 169 173 176 180 183 186 192 203 212 208 201 226 219 191 190 181 168 162 160 161
155 161 167 165 167 169 170 172 173 173 173 173 173 173 174 175 178 177 178 178 177 177 178 180 185 190 194 198 202 208 219 232 225 204 227 234 200 194 188 178 173 170 172
160 165 170 169 170 172 174 176 177 177 178 178 179 179 181 183 187 189 190 191 193 193 195 197 201 205 206 209 211 215 224 236 247 226 212 217 206 198 190 182 179 179 182
162 167 175 174 175 176 178 180 181 182 183 184 185 186 187 189 193 197 200 203 205 207 209 210 213 216 215 214 217 221 226 234 242 252 254 217 210 206 194 187 186 187 188
167 172 177 175 175 177 181 186 187 188 189 190 192 193 195 197 200 205 207 213 215 216 218 220 221 224 223 222 225 228 233 239 238 239 249 240 221 211 200 192 193 195 194
175 179 179 176 176 174 178 190 191 194 195 196 198 201 201 204 206 212 218 220 224 225 226 226 226 226 227 231 234 236 240 233 229 235 240 249 236 219 210 200 198 200 201
182 183 182 181 179 176 185 187 188 194 197 197 197 203 198 191 204 214 222 230 231 231 231 231 231 229 228 227 236 239 233 233 233 234 238 246 249 240 225 212 205 205 206
180 179 180 183 183 182 187 178 185 195 195 202 203 201 196 194 207 219 215 237 236 234 231 235 234 225 218 212 215 219 225 233 234 232 235 245 256 258 238 221 212 210 211
176 182 180 182 183 188 187 180 183 191 196 204 209 200 197 204 210 212 212 220 217 215 211 216 218 216 222 222 217 220 226 227 231 230 237 247 256 260 245 225 215 214 214
165 182 187 187 184 186 187 184 185 193 198 204 202 199 200 206 214 213 208 213 212 203 206 213 218 223 227 228 228 230 229 228 232 231 239 248 252 251 241 228 220 217 216
135 138 168 200 188 177 179 180 185 188 191 194 198 200 197 198 202 204 208 213 211 201 199 201 207 216 225 225 235 229 218 216 228 235 233 249 252 245 237 231 226 224 222
48 43 25 262 210 153 149 165 169 172 167 184 189 181 175 176 183 185 193 207 209 196 190 192 210 206 215 216 237 245 243 239 238 243 243 238 244 246 241 233 228 227 229
34 32 21 342 332 1 108 181 177 172 171 183 173 164 167 173 174 173 183 203 202 184 179 188 199 203 214 220 242 254 252 250 247 247 249 246 238 243 244 238 232 229 232
45 35 23 357 328 327 319 299 274 219 185 177 164 167 178 180 176 172 186 204 190 179 197 216 182 187 220 256 260 257 254 249 246 248 245 246 244 240 237 239 237 233 235
92 72 42 347 321 305 306 301 289 272 214 175 171 178 177 179 172 167 169 171 162 149 144 149 151 157 194 236 276 287 272 259 247 240 242 246 244 242 238 237 235 236 236
89 97 112 196 244 258 257 260 256 244 220 190 191 184 180 175 167 164 158 154 150 149 155 149 144 121 192 176 35 319 294 272 260 255 250 253 255 250 239 234 231 229 235
65 86 139 213 236 247 250 244 233 224 217 199 196 197 192 177 168 167 162 163 161 150 138 124 125 128 162 117 122 15 338 333 337 302 281 265 273 272 252 237 227 223 226
45 33 35 26 356 324 299 284 300 14 18 48 227 227 215 190 177 169 171 167 170 162 165 166 151 148 160 72 134 146 166 289 309 303 290 290 300 294 277 258 235 225 221
49 43 34 29 36 25 8 8 17 22 333 313 277 260 250 216 187 177 178 176 174 170 174 193 168 157 152 188 275 186 189 195 256 305 305 298 310 310 300 281 257 239 226
59 56 47 31 30 30 35 32 31 27 10 357 359 355 318 272 227 201 190 181 178 176 180 188 188 186 169 179 197 212 227 220 214 235 288 305 315 295 290 279 261 244 230
47 39 32 34 27 20 32 41 43 33 17 13 7 0 351 337 322 283 225 196 184 179 182 187 191 195 200 209 215 210 208 214 210 219 261 290 297 290 291 277 266 248 227